Flag for U.S.A. Weather past 2 weeks in Elizabeth, New Jersey, U.S.A.

Now
53 °F

Sunny.


Feels Like: 47 °F
Forecast: 43 / 62 °F
Wind: 22 mph from Northwest

Location: Newark International Airport


UV Index: 5 (Moderate)

Visibility: 10 mi


Pressure: 29.93 "Hg

Humidity: 18%

Dew point: 11 °F

Location of ElizabethLocation

Historic Weather in Elizabeth

°F

Elizabeth temperature yesterday

Maximum temperature yesterday: 62 °F (at 2:51 PM)
Minimum temperature yesterday: 45 °F (at 11:51 PM)
Average temperature yesterday: 54 °F

Past Weeks' High & Low Weather Summary

 TemperatureHumidityPressure
High83 °F (Apr 13, 2:51 PM)94% (Apr 15, 6:00 AM)30.73 "Hg (Apr 15, 6:00 AM)
Low31 °F (Apr 16, 5:51 AM)16% (Apr 19, 3:51 PM)29.50 "Hg (Apr 23, 1:51 AM)
Average54 °F52%30.09 "Hg
* Reported Apr 9 9:51 AM — Apr 24 9:51 AM, Elizabeth, Weather by CustomWeather, © 2014

Note: Actual official high and low records may vary slightly from our data, if they occured in-between our weather recording intervals... More about our weather records

Advertising

Historic Weather Conditions — Data for Previous 24 hours

 ConditionsComfort  
Time TempWeatherWind HumidityBarometerVisibility
9:51 AM
Apr 24
51 °FSunny.26 mph22%29.93 "Hg10 mi
8:51 AM48 °FSunny.21 mph25%29.93 "Hg10 mi
7:51 AM45 °FSunny.23 mph31%29.92 "Hg10 mi
6:51 AM43 °FClear.13 mph37%29.91 "Hg10 mi
5:51 AM42 °FClear.12 mph41%29.88 "Hg10 mi
4:51 AM43 °FClear.12 mph43%29.86 "Hg10 mi
3:51 AM43 °FClear.13 mph51%29.86 "Hg10 mi
2:51 AM43 °FPassing clouds.15 mph56%29.85 "Hg10 mi
1:51 AM44 °FPassing clouds.13 mph55%29.86 "Hg10 mi
12:51 AM45 °FPassing clouds.14 mph53%29.86 "Hg10 mi
11:51 PM
Apr 23
45 °FPassing clouds.14 mph53%29.85 "Hg10 mi
10:51 PM46 °FOvercast.22 mph51%29.84 "Hg10 mi
9:51 PM47 °FOvercast.15 mph50%29.83 "Hg10 mi
8:51 PM48 °FPassing clouds.23 mph46%29.80 "Hg10 mi
7:51 PM50 °FPartly sunny.21 mph48%29.75 "Hg10 mi
6:51 PM52 °FScattered clouds.31 mph47%29.71 "Hg10 mi
5:51 PM57 °FScattered clouds.28 mph39%29.67 "Hg10 mi
4:51 PM60 °FPartly sunny.28 mph38%29.65 "Hg10 mi
3:51 PM61 °FPartly sunny.23 mph35%29.61 "Hg10 mi
2:51 PM62 °FPartly sunny.24 mph34%29.60 "Hg10 mi
1:51 PM60 °FPartly sunny.22 mph39%29.60 "Hg10 mi
12:51 PM57 °FPartly sunny.26 mph44%29.59 "Hg10 mi
11:51 AM54 °FPartly sunny.20 mph49%29.61 "Hg10 mi
Weather by CustomWeather, © 2014

See weather overview